Location: Sark
(49.4440°N, 2.3620°W)
Time: 22:32:33
(UTC+00:00)

Amateur Radio Satellites - All Passes

Search period start: 18 December 2017 22:02
Search period end: 19 December 2017 22:02
Location: Sark, 49.4440°N, 2.3620°W

Satellite Date Start Highest point End Downlink Frequencies (MHz)
Time Altitude Azimuth
SO-50 18 Dec 22:27:30 22:32:09 70° 47° (NE) 22:36:52 436.795
RS-15 18 Dec 22:31:48 22:43:50 88° 51° (NE) 22:55:10 29.354- 29.394
AO-85 18 Dec 22:33:21 22:37:06 36° 320° (NW) 22:41:07 145.980
BEESAT 3 18 Dec 22:34:14 22:35:16 11° 345° (NNW) 22:36:19 437.485
PRISM 18 Dec 22:42:15 22:46:17 53° 101° (E) 22:50:15 437.425
VELOX 1 18 Dec 22:54:57 22:58:30 24° 62° (ENE) 23:02:03 145.980
SPROUT 18 Dec 23:00:25 23:04:19 37° 68° (ENE) 23:08:15 437.525
LO-87 18 Dec 23:06:36 23:09:49 32° 263° (W) 23:13:02 145.935 - 145.965
EO-79 18 Dec 23:09:00 23:11:36 16° 90° (E) 23:14:11 145.935-145.965
ESTCUBE 1 18 Dec 23:17:05 23:21:23 43° 262° (W) 23:25:44 437.505/2401.250
AIST 2D 18 Dec 23:18:16 23:21:46 55° 100° (E) 23:25:14 435.315
TIGRISAT 18 Dec 23:22:26 23:25:55 24° 297° (WNW) 23:29:27 435.000
FO-29 18 Dec 23:24:03 23:27:12 14° 318° (NW) 23:30:12 435.910
BEESAT 2 18 Dec 23:24:51 23:26:12 11° 344° (NNW) 23:27:32 435.950
UNISAT 6 18 Dec 23:27:12 23:30:25 20° 298° (WNW) 23:33:41 437.425
POLYITAN 1 18 Dec 23:32:31 23:36:08 26° 95° (E) 23:39:43 437.675
DX 1 18 Dec 23:37:21 23:40:04 16° 58° (ENE) 23:42:47 434.975-435.025
PCSat 18 Dec 23:42:26 23:45:27 15° 17° (NNE) 23:48:28 145.827
DUCHIFAT 1 18 Dec 23:56:06 23:59:57 35° 97° (E) 00:03:49 145.980
QB50P2 18 Dec 23:58:18 00:02:27 52° 100° (E) 00:06:35 145.880/145.840
SO-50 19 Dec 00:08:46 00:12:11 20° 246° (WSW) 00:15:37 436.795
Oscar 19 19 Dec 00:12:58 00:13:30 10° 84° (E) 00:14:03 437.125/150
AO-85 19 Dec 00:16:36 00:18:46 14° 345° (NNW) 00:21:00 145.980
PRISM 19 Dec 00:18:19 00:21:11 19° 299° (WNW) 00:24:02 437.425
BUGSAT 1 19 Dec 00:19:29 00:22:02 16° 91° (E) 00:24:35 437.445
50 SAT 19 Dec 00:20:52 00:23:39 29° 69° (ENE) 00:26:27 437.505
NANOSAT C BR1 19 Dec 00:25:01 00:29:15 79° 105° (ESE) 00:33:28 145.865
VELOX 1 19 Dec 00:30:24 00:34:41 46° 261° (W) 00:39:00 145.980
SPROUT 19 Dec 00:36:46 00:40:18 25° 266° (W) 00:43:51 437.525
EO-79 19 Dec 00:43:34 00:47:44 61° 288° (WNW) 00:51:54 145.935-145.965
RS-15 19 Dec 00:45:14 00:54:48 31° 257° (WSW) 01:04:02 29.354- 29.394
UKube-1 19 Dec 00:46:07 00:50:12 42° 68° (ENE) 00:54:17 .
AIST 2D 19 Dec 00:52:36 00:54:31 14° 298° (WNW) 00:56:26 435.315
BEESAT 19 Dec 00:57:37 00:59:51 13° 54° (NE) 01:02:05 436.000
POLYITAN 1 19 Dec 01:08:06 01:11:58 36° 293° (WNW) 01:15:51 437.675
DX 1 19 Dec 01:11:22 01:15:44 72° 257° (WSW) 01:20:07 434.975-435.025
PCSat 19 Dec 01:25:25 01:30:28 37° 42° (NE) 01:35:29 145.827
ITUPSAT 1 19 Dec 01:27:22 01:31:01 22° 60° (ENE) 01:34:41 437.325
Gurwin Techsat 1B 19 Dec 01:27:55 01:32:47 35° 96° (E) 01:37:37 435.225
MOZHAYETS 4 19 Dec 01:31:20 01:35:18 30° 65° (ENE) 01:39:18
DUCHIFAT 1 19 Dec 01:31:57 01:35:31 27° 295° (WNW) 01:39:04 145.980
CUBESAT XI-V 19 Dec 01:33:25 01:34:25 11° 52° (NE) 01:35:24 437.345
QB50P2 19 Dec 01:34:50 01:37:54 20° 299° (WNW) 01:40:57 145.880/145.840
AO-7 19 Dec 01:46:09 01:49:03 12° 81° (E) 01:51:56 .
Oscar 19 19 Dec 01:48:36 01:53:49 68° 103° (ESE) 01:59:00 437.125/150
BEESAT 3 19 Dec 01:50:31 01:53:36 21° 32° (NNE) 01:56:39 437.485
AO-91 19 Dec 01:51:49 01:55:16 75° 103° (ESE) 01:58:38 145.960
50 SAT 19 Dec 01:53:21 01:55:38 18° 266° (W) 01:57:54 437.505
BUGSAT 1 19 Dec 01:53:45 01:57:43 56° 289° (WNW) 02:01:44 437.445
YUBILEINY 19 Dec 01:57:20 02:05:26 43° 86° (E) 02:13:35 435.215
AO-85 19 Dec 01:59:16 02:01:05 12° 10° (N) 02:02:57 145.980
NANOSAT C BR1 19 Dec 02:02:09 02:04:24 14° 302° (WNW) 02:06:37 145.865
UKube-1 19 Dec 02:22:54 02:26:22 23° 266° (W) 02:29:52 .
BEESAT 19 Dec 02:32:06 02:36:51 78° 74° (ENE) 02:41:38 436.000
BEESAT 2 19 Dec 02:41:46 02:44:56 21° 32° (NNE) 02:48:04 435.950
KKS-1 19 Dec 02:49:48 02:51:29 12° 54° (NE) 02:53:12 437.445
ITUPSAT 1 19 Dec 03:03:49 03:08:29 57° 259° (WSW) 03:13:12 437.325
CUBESAT XI-V 19 Dec 03:06:14 03:10:50 62° 72° (ENE) 03:15:31 437.345
Gurwin Techsat 1B 19 Dec 03:07:51 03:12:47 40° 295° (WNW) 03:17:42 435.225
MOZHAYETS 4 19 Dec 03:08:10 03:12:23 36° 264° (W) 03:16:37
PCSat 19 Dec 03:08:49 03:14:03 50° 243° (WSW) 03:19:15 145.827
ITAMSAT 1 19 Dec 03:11:20 03:15:36 25° 93° (E) 03:19:51 435.822/435.867
BEESAT 3 19 Dec 03:27:36 03:31:34 74° 233° (SW) 03:35:27 437.485
Oscar 19 19 Dec 03:28:45 03:32:40 22° 302° (WNW) 03:36:34 437.125/150
AO-7 19 Dec 03:35:30 03:43:46 57° 103° (ESE) 03:51:57 .
AO-85 19 Dec 03:39:09 03:43:01 26° 33° (NNE) 03:47:08 145.980
YUBILEINY 19 Dec 03:53:31 04:02:06 53° 289° (WNW) 04:10:45 435.215
M-CUBED/EXP-1 PRIME 19 Dec 03:56:17 04:00:39 49° 105° (ESE) 04:04:43 437.505
DOVE 4 19 Dec 04:02:58 04:05:40 16° 88° (E) 04:08:16 437.250
BEESAT 19 Dec 04:12:32 04:15:12 15° 272° (W) 04:17:54 436.000
BEESAT 2 19 Dec 04:19:04 04:23:07 77° 234° (SW) 04:27:05 435.950
KKS-1 19 Dec 04:22:50 04:27:17 77° 74° (ENE) 04:31:46 437.445
CUBESAT XI-V 19 Dec 04:45:24 04:48:38 18° 271° (W) 04:51:54 437.345
ITAMSAT 1 19 Dec 04:50:20 04:55:22 52° 292° (WNW) 05:00:21 435.822/435.867
STARS 19 Dec 04:52:12 04:56:33 64° 71° (ENE) 05:00:53 437.465
XW-2B 19 Dec 05:09:44 05:11:26 12° 88° (E) 05:13:08 145.730 - 145.750
CUTE-I 19 Dec 05:12:00 05:14:52 14° 87° (E) 05:17:43 437.470
NO-84 19 Dec 05:12:24 05:14:51 23° 136° (SE) 05:17:27 435.350 FM
XW-2F 19 Dec 05:17:07 05:19:14 14° 89° (E) 05:21:19 145.980 - 146.000
AO-85 19 Dec 05:19:11 05:23:54 78° 233° (SW) 05:28:59 145.980
STRAND 1 19 Dec 05:24:34 05:28:36 24° 60° (ENE) 05:32:38 437.568
AO-7 19 Dec 05:28:36 05:36:21 44° 304° (NW) 05:44:05 .
M-CUBED/EXP-1 PRIME 19 Dec 05:31:05 05:34:42 24° 305° (NW) 05:38:09 437.505
XW-2C 19 Dec 05:36:17 05:39:28 24° 94° (E) 05:42:37 145.795 - 145.815
DOVE 4 19 Dec 05:39:27 05:43:53 62° 287° (WNW) 05:48:03 437.250
YUBILEINY 19 Dec 05:56:58 06:01:30 15° 315° (NW) 06:06:03 435.215
KKS-1 19 Dec 06:02:06 06:04:24 14° 272° (W) 06:06:41 437.445
FO-29 19 Dec 06:07:36 06:14:15 32° 57° (ENE) 06:20:44 435.910
NUDT-PHONESAT 19 Dec 06:09:10 06:12:42 36° 97° (E) 06:16:11 437.300
LilacSat-2 19 Dec 06:18:27 06:22:21 75° 102° (ESE) 06:26:14 437.200
CUTE 1.7 + AOD 2 19 Dec 06:20:17 06:23:37 21° 92° (E) 06:26:54 437.475
KAITUO 1B 19 Dec 06:21:35 06:25:20 54° 101° (E) 06:29:02 145.475/437.950
CUBEBUG 2 19 Dec 06:22:55 06:25:23 15° 89° (E) 06:27:53 437.445
XW-2D 19 Dec 06:26:04 06:29:57 87° 104° (ESE) 06:33:48 145.860 - 145.880
STARS 19 Dec 06:30:34 06:33:17 16° 270° (W) 06:36:02 437.465
ITAMSAT 1 19 Dec 06:32:58 06:33:42 10° 312° (NW) 06:34:26 435.822/435.867
O/OREOS (USA 219) 19 Dec 06:36:40 06:39:25 16° 100° (E) 06:42:09 437.305
XW-2B 19 Dec 06:42:11 06:46:02 66° 287° (WNW) 06:49:50 145.730 - 145.750
HO-68 19 Dec 06:48:28 06:55:16 44° 98° (E) 07:02:01 435.675
NO-84 19 Dec 06:48:47 06:51:50 59° 337° (NNW) 06:55:07 435.350 FM
XW-2F 19 Dec 06:49:54 06:53:41 57° 287° (WNW) 06:57:27 145.980 - 146.000
CUTE-I 19 Dec 06:50:19 06:55:42 89° 105° (ESE) 07:01:01 437.470
AO-85 19 Dec 07:01:16 07:03:43 14° 250° (WSW) 07:06:13 145.980
STRAND 1 19 Dec 07:02:23 07:07:25 59° 259° (WSW) 07:12:29 437.568
XW-2A 19 Dec 07:02:31 07:04:10 13° 90° (E) 07:05:49 145.665 - 145.685
XW-2C 19 Dec 07:10:12 07:13:41 33° 292° (WNW) 07:17:08 145.795 - 145.815
UNISAT 6 19 Dec 07:19:37 07:20:46 11° 55° (NE) 07:21:55 437.425
SEEDS 19 Dec 07:22:41 07:26:53 55° 100° (E) 07:31:02 437.485
AO-7 19 Dec 07:22:47 07:27:02 15° 328° (NNW) 07:31:17 .
AAUSAT CUBESAT 2 19 Dec 07:26:47 07:30:24 28° 94° (E) 07:33:58 437.432
NUDT-PHONESAT 19 Dec 07:43:26 07:46:19 21° 296° (WNW) 07:49:13 437.300
UWE-3 19 Dec 07:47:20 07:51:38 57° 101° (E) 07:56:02 435.000/436.395/437.385
FO-29 19 Dec 07:50:48 07:58:41 76° 257° (WSW) 08:06:24 435.910
LilacSat-2 19 Dec 07:54:15 07:56:05 13° 301° (WNW) 07:57:53 437.200
CUTE 1.7 + AOD 2 19 Dec 07:55:32 07:59:39 45° 290° (WNW) 08:03:44 437.475
KAITUO 1B 19 Dec 07:56:32 07:58:55 16° 298° (WNW) 08:01:16 145.475/437.950
CUBEBUG 2 19 Dec 07:58:10 08:02:26 68° 287° (WNW) 08:06:49 437.445
ZACube-1 19 Dec 08:01:14 08:05:27 44° 99° (E) 08:09:42 437.345
XW-2D 19 Dec 08:02:16 08:03:30 11° 302° (WNW) 08:04:45 145.860 - 145.880
Oscar 11 19 Dec 08:12:24 08:16:23 33° 96° (E) 08:20:21 .
O/OREOS (USA 219) 19 Dec 08:13:42 08:18:16 71° 299° (WNW) 08:22:50 437.305
NO-84 19 Dec 08:26:34 08:29:30 30° 358° (N) 08:32:40 435.350 FM
CUTE-I 19 Dec 08:31:35 08:35:03 18° 305° (NW) 08:38:30 437.470
AO-73 19 Dec 08:31:59 08:36:22 78° 102° (ESE) 08:40:51 145.935
XW-2A 19 Dec 08:33:48 08:37:09 50° 288° (WNW) 08:40:29 145.665 - 145.685
HO-68 19 Dec 08:36:18 08:43:04 47° 299° (WNW) 08:49:47 435.675
TIGRISAT 19 Dec 08:47:51 08:52:03 63° 72° (ENE) 08:56:17 435.000
UNISAT 6 19 Dec 08:52:29 08:56:44 77° 74° (ENE) 09:01:01 437.425
SEEDS 19 Dec 08:59:12 09:02:11 19° 299° (WNW) 09:05:10 437.485
AAUSAT CUBESAT 2 19 Dec 09:02:07 09:05:52 32° 293° (WNW) 09:09:33 437.432
nSIGHT-1 19 Dec 09:13:39 09:14:53 12° 136° (SE) 09:16:08 .
DELFI C3 19 Dec 09:16:43 09:20:17 32° 96° (E) 09:23:49 145.870
UWE-3 19 Dec 09:24:39 09:27:44 19° 298° (WNW) 09:30:53 435.000/436.395/437.385
PRISM 19 Dec 09:34:54 09:39:02 67° 73° (ENE) 09:43:10 437.425
ZACube-1 19 Dec 09:37:59 09:41:30 24° 296° (WNW) 09:45:06 437.345
FO-29 19 Dec 09:39:38 09:44:49 19° 277° (W) 09:49:57 435.910
NANOSAT C BR1 19 Dec 09:47:44 09:49:46 13° 57° (ENE) 09:51:48 145.865
Oscar 11 19 Dec 09:48:39 09:52:28 30° 294° (WNW) 09:56:16 .
AIST 2D 19 Dec 09:56:04 09:59:21 37° 70° (ENE) 10:02:39 435.315
O/OREOS (USA 219) 19 Dec 09:56:05 09:58:33 14° 320° (NW) 10:01:00 437.305
Max Valier Satellite 19 Dec 09:58:07 10:01:50 63° 101° (E) 10:05:33 145.860
NO-84 19 Dec 10:03:56 10:07:15 46° 19° (NNE) 10:10:50 435.350 FM
EO-79 19 Dec 10:05:10 10:08:19 21° 62° (ENE) 10:11:29 145.935-145.965
AO-73 19 Dec 10:09:32 10:12:05 15° 301° (WNW) 10:14:39 145.935
ISS 19 Dec 10:11:58 10:14:46 26° 144° (SE) 10:17:36 437.550
EO-88 19 Dec 10:14:12 10:17:53 67° 102° (ESE) 10:21:32 145.990 - 145.960
HO-68 19 Dec 10:26:01 10:29:06 13° 321° (NW) 10:32:12 435.675
TIGRISAT 19 Dec 10:26:42 10:29:12 15° 271° (W) 10:31:41 435.000
POLYITAN 1 19 Dec 10:28:49 10:32:35 34° 67° (ENE) 10:36:23 437.675
LO-87 19 Dec 10:29:39 10:31:36 14° 90° (E) 10:33:32 145.935 - 145.965
UNISAT 6 19 Dec 10:32:09 10:34:01 13° 273° (W) 10:35:52 437.425
nSIGHT-1 19 Dec 10:47:22 10:50:32 55° 154° (SSE) 10:53:41 .
DUCHIFAT 1 19 Dec 10:51:30 10:55:27 44° 69° (ENE) 10:59:25 145.980
DELFI C3 19 Dec 10:51:37 10:54:55 26° 294° (WNW) 10:58:13 145.870
QB50P2 19 Dec 10:54:31 10:58:40 67° 73° (ENE) 11:02:51 145.880/145.840
AO-7 19 Dec 11:02:36 11:05:05 12° 24° (NNE) 11:07:35 .
ESTCUBE 1 19 Dec 11:05:04 11:09:04 29° 95° (E) 11:13:01 437.505/2401.250
PRISM 19 Dec 11:12:30 11:14:45 14° 271° (W) 11:16:59 437.425
BUGSAT 1 19 Dec 11:13:03 11:16:02 20° 62° (ENE) 11:19:01 437.445
Gurwin Techsat 1B 19 Dec 11:16:08 11:19:16 16° 53° (NE) 11:22:25 435.225
AO-91 19 Dec 11:18:12 11:20:34 14° 61° (ENE) 11:22:49 145.960
NANOSAT C BR1 19 Dec 11:20:41 11:24:52 83° 254° (WSW) 11:29:05 145.865
AIST 2D 19 Dec 11:30:12 11:32:40 18° 268° (W) 11:35:09 435.315
Oscar 19 19 Dec 11:31:47 11:35:57 25° 60° (ENE) 11:40:08 437.125/150
Max Valier Satellite 19 Dec 11:33:15 11:35:12 14° 299° (WNW) 11:37:09 145.860
EO-79 19 Dec 11:39:45 11:43:47 47° 260° (W) 11:47:52 145.935-145.965
NO-84 19 Dec 11:41:06 11:44:34 47° 217° (SW) 11:48:17 435.350 FM
ISS 19 Dec 11:47:43 11:51:02 83° 347° (NNW) 11:54:20 437.550
EO-88 19 Dec 11:49:17 11:51:01 13° 300° (WNW) 11:52:44 145.990 - 145.960
YUBILEINY 19 Dec 12:01:36 12:08:56 28° 59° (ENE) 12:16:12 435.215
LO-87 19 Dec 12:01:50 12:05:16 48° 288° (WNW) 12:08:42 145.935 - 145.965
POLYITAN 1 19 Dec 12:04:50 12:08:24 27° 265° (W) 12:12:01 437.675
VELOX 1 19 Dec 12:16:12 12:19:48 24° 93° (E) 12:23:21 145.980
SPROUT 19 Dec 12:16:59 12:21:00 38° 98° (E) 12:24:58 437.525
nSIGHT-1 19 Dec 12:23:34 12:26:46 59° 353° (N) 12:29:58 .
DUCHIFAT 1 19 Dec 12:28:09 12:31:19 21° 268° (W) 12:34:30 145.980
QB50P2 19 Dec 12:32:39 12:34:55 14° 271° (W) 12:37:12 145.880/145.840
ESTCUBE 1 19 Dec 12:41:45 12:45:56 36° 293° (WNW) 12:50:04 437.505/2401.250
BUGSAT 1 19 Dec 12:47:15 12:51:07 45° 261° (W) 12:54:59 437.445
AO-7 19 Dec 12:48:15 12:55:16 32° 49° (NE) 13:02:19 .
AO-91 19 Dec 12:52:03 12:56:39 77° 257° (WSW) 13:00:46 145.960
Gurwin Techsat 1B 19 Dec 12:53:07 12:58:26 82° 73° (ENE) 13:03:48 435.225
DX 1 19 Dec 12:56:30 12:58:52 14° 89° (E) 13:01:14 434.975-435.025
ITAMSAT 1 19 Dec 12:57:58 12:59:49 12° 50° (NE) 13:01:40 435.822/435.867
RS-15 19 Dec 13:00:15 13:10:59 38° 107° (ESE) 13:21:35 29.354- 29.394
50 SAT 19 Dec 13:05:08 13:06:40 13° 91° (E) 13:08:11 437.505
Oscar 19 19 Dec 13:09:53 13:14:56 56° 259° (W) 13:20:03 437.125/150
M-CUBED/EXP-1 PRIME 19 Dec 13:12:03 13:15:21 20° 53° (NE) 13:18:42 437.505
ISS 19 Dec 13:24:26 13:27:41 56° 2° (N) 13:30:57 437.550
VELOX 1 19 Dec 13:52:14 13:56:24 42° 292° (WNW) 14:00:33 145.980
SPROUT 19 Dec 13:53:13 13:56:43 25° 296° (WNW) 14:00:13 437.525
YUBILEINY 19 Dec 13:58:01 14:06:53 83° 263° (W) 14:15:39 435.215
nSIGHT-1 19 Dec 13:59:57 14:03:10 71° 13° (NNE) 14:06:24 .
UKube-1 19 Dec 14:04:23 14:08:29 41° 99° (E) 14:12:32 .
SO-50 19 Dec 14:25:41 14:29:58 47° 122° (ESE) 14:34:19 436.795
BEESAT 19 Dec 14:29:12 14:31:46 14° 88° (E) 14:34:20 436.000
DX 1 19 Dec 14:31:12 14:35:32 71° 288° (WNW) 14:39:51 434.975-435.025
ITAMSAT 1 19 Dec 14:33:09 14:38:16 60° 69° (ENE) 14:43:24 435.822/435.867
Gurwin Techsat 1B 19 Dec 14:35:46 14:39:03 16° 272° (W) 14:42:22 435.225
50 SAT 19 Dec 14:35:47 14:38:47 40° 289° (WNW) 14:41:45 437.505
AO-7 19 Dec 14:39:00 14:47:20 80° 252° (WSW) 14:55:45 .
M-CUBED/EXP-1 PRIME 19 Dec 14:44:43 14:49:13 71° 253° (WSW) 14:53:52 437.505
MOZHAYETS 4 19 Dec 14:58:16 15:02:35 38° 97° (E) 15:06:55
ITUPSAT 1 19 Dec 15:00:05 15:04:07 26° 94° (E) 15:08:08 437.325
CUBESAT XI-V 19 Dec 15:00:29 15:02:07 12° 85° (E) 15:03:46 437.345
ISS 19 Dec 15:00:59 15:04:17 72° 203° (SSW) 15:07:33 437.550
O/OREOS (USA 219) 19 Dec 15:02:24 15:04:27 13° 38° (NE) 15:06:28 437.305
RS-15 19 Dec 15:10:04 15:22:29 82° 311° (NW) 15:34:41 29.354- 29.394
DOVE 4 19 Dec 15:11:06 15:15:35 31° 65° (ENE) 15:19:53 437.250
nSIGHT-1 19 Dec 15:36:17 15:39:15 34° 212° (SSW) 15:42:12 .
HO-68 19 Dec 15:38:27 15:42:00 15° 41° (NE) 15:45:33 435.675
UKube-1 19 Dec 15:40:47 15:44:19 25° 297° (WNW) 15:47:49 .
XW-2B 19 Dec 15:55:21 15:57:02 13° 59° (ENE) 15:58:43 145.730 - 145.750
YUBILEINY 19 Dec 15:56:22 16:02:18 21° 286° (WNW) 16:08:14 435.215
XW-2F 19 Dec 16:02:14 16:04:14 14° 60° (ENE) 16:06:15 145.980 - 146.000
BEESAT 19 Dec 16:05:22 16:10:10 81° 286° (WNW) 16:14:56 436.000
SO-50 19 Dec 16:06:29 16:10:35 33° 323° (NW) 16:14:44 436.795
DX 1 19 Dec 16:09:53 16:10:55 11° 307° (NW) 16:11:57 434.975-435.025
KKS-1 19 Dec 16:12:09 16:12:57 10° 86° (E) 16:13:46 437.445
ITAMSAT 1 19 Dec 16:14:07 16:18:08 22° 268° (W) 16:22:10 435.822/435.867
PCSat 19 Dec 16:16:02 16:17:03 10° 101° (E) 16:18:04 145.827
XW-2C 19 Dec 16:21:32 16:24:32 22° 65° (ENE) 16:27:34 145.795 - 145.815
CUBESAT XI-V 19 Dec 16:35:28 16:40:13 85° 101° (E) 16:44:56 437.345
MOZHAYETS 4 19 Dec 16:35:37 16:39:39 30° 295° (WNW) 16:43:39
AO-7 19 Dec 16:35:44 16:41:25 20° 273° (W) 16:47:09 .
CUTE-I 19 Dec 16:37:09 16:42:01 37° 64° (ENE) 16:46:54 437.470
ITUPSAT 1 19 Dec 16:37:34 16:42:07 44° 293° (WNW) 16:46:39 437.325
ISS 19 Dec 16:38:09 16:40:20 17° 221° (SW) 16:42:30 437.550
O/OREOS (USA 219) 19 Dec 16:40:19 16:44:49 63° 60° (ENE) 16:49:15 437.305
DOVE 4 19 Dec 16:48:11 16:53:06 43° 262° (W) 16:57:52 437.250
NUDT-PHONESAT 19 Dec 16:51:53 16:55:11 31° 68° (ENE) 16:58:31 437.300
LilacSat-2 19 Dec 17:03:51 17:07:39 66° 74° (ENE) 17:11:31 437.200
KAITUO 1B 19 Dec 17:05:00 17:08:37 45° 71° (ENE) 17:12:16 145.475/437.950
XW-2D 19 Dec 17:10:44 17:14:32 76° 74° (ENE) 17:18:23 145.860 - 145.880
UWE-3 19 Dec 17:16:15 17:16:42 10° 55° (NE) 17:17:10 435.000/436.395/437.385
CUTE 1.7 + AOD 2 19 Dec 17:16:43 17:20:17 26° 65° (ENE) 17:23:53 437.475
HO-68 19 Dec 17:21:17 17:28:10 51° 63° (ENE) 17:35:03 435.675
CUBEBUG 2 19 Dec 17:25:04 17:28:06 20° 62° (ENE) 17:31:08 437.445
RS-15 19 Dec 17:25:22 17:36:56 43° 341° (NNW) 17:48:09 29.354- 29.394
XW-2B 19 Dec 17:26:51 17:30:39 75° 258° (WSW) 17:34:30 145.730 - 145.750
XW-2F 19 Dec 17:34:05 17:37:51 66° 259° (WSW) 17:41:40 145.980 - 146.000
BEESAT 19 Dec 17:44:47 17:47:11 14° 306° (NW) 17:49:35 436.000
KKS-1 19 Dec 17:45:46 17:50:13 84° 103° (ESE) 17:54:39 437.445
SO-50 19 Dec 17:49:58 17:52:23 14° 347° (NNW) 17:54:49 436.795
PCSat 19 Dec 17:54:02 17:59:22 63° 120° (ESE) 18:04:45 145.827
XW-2C 19 Dec 17:55:00 17:58:32 36° 263° (W) 18:02:06 145.795 - 145.815
AO-73 19 Dec 17:57:55 17:59:52 13° 57° (ENE) 18:01:50 145.935
STARS 19 Dec 18:13:13 18:17:34 67° 102° (ESE) 18:21:55 437.465
CUBESAT XI-V 19 Dec 18:14:11 18:16:58 16° 303° (WNW) 18:19:43 437.345
CUTE-I 19 Dec 18:17:03 18:22:03 39° 263° (W) 18:27:04 437.470
SEEDS 19 Dec 18:17:51 18:22:02 64° 73° (ENE) 18:26:17 437.485
AAUSAT CUBESAT 2 19 Dec 18:20:30 18:24:13 32° 67° (ENE) 18:27:58 437.432
O/OREOS (USA 219) 19 Dec 18:20:46 18:23:44 17° 260° (W) 18:26:41 437.305
NUDT-PHONESAT 19 Dec 18:26:01 18:29:03 24° 266° (W) 18:32:08 437.300
KAITUO 1B 19 Dec 18:40:19 18:42:50 17° 269° (W) 18:45:22 145.475/437.950
LilacSat-2 19 Dec 18:40:42 18:42:23 12° 272° (W) 18:44:03 437.200
XW-2D 19 Dec 18:48:15 18:49:13 11° 273° (W) 18:50:11 145.860 - 145.880
UWE-3 19 Dec 18:48:17 18:52:23 74° 75° (ENE) 18:56:34 435.000/436.395/437.385
CUTE 1.7 + AOD 2 19 Dec 18:52:00 18:55:59 37° 263° (W) 19:00:00 437.475
BEESAT 3 19 Dec 18:57:25 19:01:13 44° 122° (ESE) 19:05:03 437.485
FO-29 19 Dec 18:59:10 19:02:23 14° 79° (E) 19:05:24 435.910
CUBEBUG 2 19 Dec 19:00:25 19:04:26 48° 261° (W) 19:08:28 437.445
ZACube-1 19 Dec 19:00:56 19:04:58 54° 72° (ENE) 19:09:05 437.345
XW-2A 19 Dec 19:08:10 19:11:32 80° 257° (WSW) 19:14:56 145.665 - 145.685
STRAND 1 19 Dec 19:08:31 19:13:10 34° 96° (E) 19:17:47 437.568
HO-68 19 Dec 19:09:24 19:16:03 40° 263° (W) 19:22:46 435.675
Oscar 11 19 Dec 19:10:54 19:15:00 43° 69° (ENE) 19:19:07 .
KKS-1 19 Dec 19:23:45 19:26:10 15° 304° (WNW) 19:28:35 437.445
AO-73 19 Dec 19:31:20 19:35:28 83° 259° (W) 19:39:42 145.935
SO-50 19 Dec 19:32:25 19:34:45 14° 12° (NNE) 19:37:05 436.795
PCSat 19 Dec 19:38:21 19:43:09 31° 321° (NW) 19:47:59 145.827
RS-15 19 Dec 19:41:42 19:53:02 41° 15° (NNE) 20:03:51 29.354- 29.394
STARS 19 Dec 19:50:37 19:53:27 17° 301° (WNW) 19:56:15 437.465
BEESAT 2 19 Dec 19:50:44 19:54:35 45° 122° (ESE) 19:58:29 435.950
SEEDS 19 Dec 19:55:39 19:58:09 15° 271° (W) 20:00:40 437.485
AAUSAT CUBESAT 2 19 Dec 19:56:01 19:59:40 29° 265° (W) 20:03:22 437.432
DELFI C3 19 Dec 20:05:34 20:09:09 33° 68° (ENE) 20:12:45 145.870
UWE-3 19 Dec 20:27:40 20:29:25 12° 273° (W) 20:31:09 435.000/436.395/437.385
BEESAT 3 19 Dec 20:35:21 20:38:53 29° 322° (NW) 20:42:27 437.485
ZACube-1 19 Dec 20:38:56 20:41:38 17° 271° (W) 20:44:21 437.345
Max Valier Satellite 19 Dec 20:40:29 20:44:02 51° 72° (ENE) 20:47:39 145.860
UNISAT 6 19 Dec 20:41:18 20:43:02 12° 87° (E) 20:44:45 437.425
FO-29 19 Dec 20:42:02 20:48:55 74° 102° (ESE) 20:54:54 435.910
STRAND 1 19 Dec 20:47:41 20:52:23 38° 295° (WNW) 20:57:03 437.568
Oscar 11 19 Dec 20:47:52 20:51:19 23° 268° (W) 20:54:48 .
EO-88 19 Dec 20:55:17 20:58:50 52° 72° (ENE) 21:02:25 145.990 - 145.960
LO-87 19 Dec 21:10:18 21:11:44 12° 60° (ENE) 21:13:11 145.935 - 145.965
SO-50 19 Dec 21:12:31 21:16:37 30° 35° (NE) 21:20:47 436.795
AO-85 19 Dec 21:17:39 21:21:36 78° 127° (SE) 21:25:51 145.980
PCSat 19 Dec 21:25:39 21:28:20 14° 346° (NNW) 21:31:02 145.827
BEESAT 2 19 Dec 21:28:52 21:32:27 29° 322° (NW) 21:36:04 435.950
DELFI C3 19 Dec 21:40:34 21:43:56 26° 266° (W) 21:47:18 145.870
